Location: Chillicothe
(39.7950°N, 93.5520°W)
Time: 10:55:47
(UTC-06:00)

Vanguard 3 - Pass Details

Date: 27 October 2019
Orbit: 508 x 3263 km, 33.4° (Epoch: 20 November)

Event Time Altitude Azimuth Distance (km) Brightness Sun altitude
Rises 01:55:08 0° 263° (W) 2,783 - -60.1°
Reaches altitude 10° 01:57:44 10° 249° (WSW) 1,758 - -59.9°
Maximum altitude 02:00:52 25° 192° (SSW) 1,042 - -59.6°
Drops below altitude 10° 02:04:03 10° 134° (SE) 1,782 - -59.3°
Sets 02:06:43 0° 121° (ESE) 2,831 - -59.0°
